Overview Statistics Trail Chart Weather Telemetry Raw packets
 

This is the latest recevied weather packets stored in our database for station/object OK1FET-5. If no packets are shown the sender has not sent any weather packets the latest 10 day(s).

<< 9 10 11 12 13 14 15 >>
Time Temp. Humidity Pressure Rain* Wind** Luminosity Snow
1788438928 27.22° C 37% 1020.4 hPa - - - -
1788438332 27.78° C 37% 1020.4 hPa - - - -
1788437737 26.11° C 39% 1020.5 hPa - - - -
1788437141 25.56° C 38% 1020.5 hPa - - - -
1788436545 26.11° C 39% 1020.6 hPa - - - -
1788435949 26.11° C 39% 1020.8 hPa - - - -
1788435353 25.56° C 38% 1020.8 hPa - - - -
1788434758 25° C 39% 1020.8 hPa - - - -
1788434162 24.44° C 41% 1020.9 hPa - - - -
1788432970 25° C 39% 1021.3 hPa - - - -
1788432375 25° C 39% 1021.6 hPa - - - -
1788431779 25° C 41% 1021.6 hPa - - - -
1788431183 25° C 41% 1021.7 hPa - - - -
1788430587 25.56° C 40% 1021.7 hPa - - - -
1788429992 27.22° C 37% 1021.7 hPa - - - -
1788429396 27.78° C 39% 1021.9 hPa - - - -
1788428800 28.89° C 37% 1022 hPa - - - -
1788428204 27.78° C 40% 1022.2 hPa - - - -
1788427608 27.22° C 42% 1022.1 hPa - - - -
1788427013 26.67° C 42% 1022.1 hPa - - - -
1788426417 26.67° C 46% 1022.2 hPa - - - -
1788425821 26.11° C 46% 1022.2 hPa - - - -
1788425225 25.56° C 48% 1022.2 hPa - - - -
1788424630 24.44° C 49% 1022.3 hPa - - - -
1788424034 26.11° C 49% 1022.4 hPa - - - -

* Rain since midnight (hover to see other rain measurements)
** Current wind speed in m/s (hover to see current wind gust speed)